El Centro, CA

12:39 AM PST on December 17, 2017 (GMT -0800)
El Centro Naval Air Facility

Weather History for KNJK - September, 2012

Change the Weather History Date:

Sunday, September 2, 2012

  Actual Average Record
Temperature  
Mean Temperature 96 °F -  
Max Temperature 109 °F 102 °F 111 °F (2010)
Min Temperature 84 °F 77 °F 72 °F (2010)
Cooling Degree Days 31    
Growing Degree Days 46 (Base 50)    
Moisture  
Dew Point 43 °F    
Average Humidity 17    
Maximum Humidity 24    
Minimum Humidity 10    
Precipitation  
Precipitation 0.00 in - - ()
Sea Level Pressure  
Sea Level Pressure 29.81 in    
Wind  
Wind Speed 6 mph (WSW)    
Max Wind Speed 15 mph    
Max Gust Speed -    
Visibility 10 miles    
Events      
Averages and records for this station are not official NWS values.
T = Trace of Precipitation, MM = Missing Value Source: NWS Daily Summary

Daily Weather History Graph

Daily Weather History Graph

Search for Another Location

Airport or City:

Trip Planner

Search our weather history database for the weather conditions in past years. The results will help you decide how hot, cold, wet, or windy it might be!

Date:

Astronomy

Sep. 02, 2012 Rise Set
Actual Time 6:18 AM PDT 7:05 PM PDT
Civil Twilight 5:53 AM PDT 7:30 PM PDT
Nautical Twilight 5:23 AM PDT 8:00 PM PDT
Astronomical Twilight 4:53 AM PDT 8:30 PM PDT
Moon 8:07 PM PDT (9/2) 8:20 AM PDT (9/2)
Length of Visible Light 13h 37m
Length of Day
12h 47m
Waning Gibbous, 95% of the Moon is Illuminated
Sep 2
Waning Gibbous
Sep 8
Last Quarter
Sep 15
New
Sep 22
First Quarter
Sep 29
Full

Hourly Weather History & Observations

Time (PDT) Temp. Heat Index Dew Point Humidity Pressure Visibility Wind Dir Wind Speed Gust Speed Precip Events Conditions
12:56 AM 88.0 °F - 39.0 °F 18% 29.83 in 10.0 mi WNW 5.8 mph - N/A   Clear
1:56 AM 86.0 °F - 37.0 °F 18% 29.82 in 10.0 mi West 8.1 mph - N/A   Clear
2:56 AM 84.9 °F - 39.9 °F 20% 29.81 in 10.0 mi West 5.8 mph - N/A   Clear
3:56 AM 84.0 °F - 37.9 °F 19% 29.80 in 10.0 mi WNW 8.1 mph - N/A   Clear
4:56 AM 87.1 °F - 39.0 °F 18% 29.81 in 10.0 mi WSW 10.4 mph - N/A   Clear
5:56 AM 84.0 °F - 42.1 °F 23% 29.82 in 10.0 mi West 4.6 mph - N/A   Clear
6:56 AM 86.0 °F - 41.0 °F 20% 29.84 in 10.0 mi SW 3.5 mph - N/A   Clear
7:56 AM 93.9 °F - 37.0 °F 14% 29.85 in 10.0 mi West 3.5 mph - N/A   Clear
8:56 AM 96.1 °F - 48.0 °F 19% 29.86 in 10.0 mi Calm Calm - N/A   Clear
9:56 AM 99.0 °F - 36.0 °F 11% 29.87 in 10.0 mi West 5.8 mph - N/A   Clear
10:56 AM 100.9 °F - 35.1 °F 10% 29.86 in 10.0 mi Calm Calm - N/A   Clear
11:56 AM 105.1 °F - 37.9 °F 10% 29.85 in 10.0 mi SSW 8.1 mph - N/A   Clear
12:56 PM 105.1 °F - 42.1 °F 12% 29.83 in 10.0 mi East 4.6 mph - N/A   Clear
1:56 PM 106.0 °F - 44.1 °F 12% 29.81 in 10.0 mi East 4.6 mph - N/A   Clear
2:56 PM 108.0 °F - 46.0 °F 13% 29.78 in 10.0 mi ENE 9.2 mph - N/A   Clear
3:56 PM 108.0 °F - 48.0 °F 13% 29.76 in 10.0 mi Variable 4.6 mph - N/A   Clear
4:56 PM 107.1 °F - 46.9 °F 13% 29.74 in 10.0 mi East 3.5 mph - N/A   Clear
5:56 PM 107.1 °F - 48.9 °F 14% 29.73 in 10.0 mi East 3.5 mph - N/A   Clear
6:56 PM 102.9 °F - 52.0 °F 18% 29.73 in 10.0 mi East 3.5 mph - N/A   Clear
7:56 PM 99.0 °F 96.5 °F 53.1 °F 21% 29.76 in 10.0 mi SW 6.9 mph - N/A   Clear
8:56 PM 96.1 °F - 48.0 °F 19% 29.79 in 10.0 mi WSW 8.1 mph - N/A   Clear
9:56 PM 97.0 °F - 46.0 °F 18% 29.80 in 10.0 mi West 15.0 mph - N/A   Clear
10:56 PM 93.0 °F - 46.9 °F 20% 29.82 in 10.0 mi WSW 9.2 mph - N/A   Clear
11:56 PM 90.0 °F - 48.0 °F 24% 29.82 in 10.0 mi WNW 5.8 mph - N/A   Clear